This is the latest recevied weather packets stored in our database for station/object JR5YHL-13. If no packets are shown the sender has not sent any weather packets the latest 10 day(s).
| Time | Temp. | Humidity | Pressure | Rain* | Wind** | Luminosity | Snow |
|---|---|---|---|---|---|---|---|
| 1777961605 | 23.33° C | 28% | 1018.3 hPa | 0 mm | - | - | - |
| 1777961007 | 23.33° C | 29% | 1018.2 hPa | 0 mm | - | - | - |
| 1777960409 | 22.78° C | 27% | 1018.3 hPa | 0 mm | - | - | - |
| 1777959811 | 23.89° C | 28% | 1018.2 hPa | 0 mm | - | - | - |
| 1777959214 | 25.56° C | 26% | 1018.1 hPa | 0 mm | - | - | - |
| 1777958616 | 26.11° C | 25% | 1018.2 hPa | 0 mm | - | - | - |
| 1777958018 | 26.11° C | 23% | 1018.2 hPa | 0 mm | - | - | - |
| 1777957420 | 26.11° C | 24% | 1018.4 hPa | 0 mm | - | - | - |
| 1777956822 | 26.11° C | 25% | 1018.6 hPa | 0 mm | - | - | - |
| 1777956225 | 25° C | 25% | 1018.8 hPa | 0 mm | - | - | - |
| 1777955627 | 25° C | 26% | 1018.9 hPa | 0 mm | - | - | - |
| 1777955029 | 25.56° C | 28% | 1019 hPa | 0 mm | - | - | - |
| 1777954432 | 26.11° C | 28% | 1019.1 hPa | 0 mm | - | - | - |
| 1777953834 | 25° C | 28% | 1019.1 hPa | 0 mm | - | - | - |
| 1777953237 | 24.44° C | 28% | 1019.2 hPa | 0 mm | - | - | - |
| 1777952639 | 25° C | 28% | 1019.3 hPa | 0 mm | - | - | - |
| 1777952041 | 24.44° C | 27% | 1019.3 hPa | 0 mm | - | - | - |
| 1777951444 | 23.33° C | 29% | 1019.6 hPa | 0 mm | - | - | - |
| 1777950846 | 22.78° C | 29% | 1019.6 hPa | 0 mm | - | - | - |
| 1777950248 | 23.33° C | 26% | 1019.6 hPa | 0 mm | - | - | - |
| 1777949651 | 22.78° C | 25% | 1019.7 hPa | 0 mm | - | - | - |
| 1777949053 | 24.44° C | 24% | 1019.7 hPa | 0 mm | - | - | - |
| 1777948455 | 25.56° C | 22% | 1019.9 hPa | 0 mm | - | - | - |
| 1777947857 | 24.44° C | 20% | 1019.8 hPa | 0 mm | - | - | - |
| 1777947260 | 23.89° C | 21% | 1019.8 hPa | 0 mm | - | - | - |
* Rain latest hour (hover to see other rain measurements)
** Current wind speed in m/s (hover to see current wind gust speed)